Location: Sungai Bunut
(2.6333°N, 113.7333°E)
Time: 09:22:09
(UTC+00:00)

Courier 1B - Pass Details

Date: 04 December 2023
Orbit: 962 x 1209 km, 28.3° (Epoch: 03 March)

Event Time Altitude Azimuth Distance (km) Brightness Sun altitude
Exits shadow 20:12:45 - 220° (SW) 3,903 10.5 -29.2°
Reaches altitude 10° 20:15:27 10° 211° (SSW) 3,103 10.0 -28.6°
Maximum altitude 20:22:02 31° 152° (SSE) 1,908 9.4 -27.1°
Drops below altitude 10° 20:28:20 10° 93° (E) 2,964 10.9 -25.7°
Sets 20:31:23 0° 82° (E) 3,879 11.6 -25.0°
